| time (UTC) | temp C | wind direction | speed KPH | gust KPH | rain 1hr cm | rain 24hr cm | rain mn cm | humidity % | barometer mb |
| 20260505140542 | 12 | 20 | 1.6 | 14.5 | 0.00 | 0.03 | 0.03 | 81 | 1008.0 |
| 20260505140112 | 12 | 49 | 3.2 | 16.1 | 0.00 | 0.03 | 0.03 | 82 | 1008.0 |
| 20260505124559 | 11 | 0 | 3.2 | 8.0 | 0.00 | 0.03 | 0.03 | 86 | 1007.5 |
| 20260505124043 | 11 | 61 | 0.0 | 8.0 | 0.00 | 0.03 | 0.03 | 86 | 1007.3 |
| 20260505123542 | 11 | 137 | 1.6 | 19.3 | 0.00 | 0.03 | 0.03 | 86 | 1007.2 |
| 20260505123053 | 11 | 0 | 1.6 | 19.3 | 0.00 | 0.03 | 0.03 | 86 | 1007.0 |
| 20260505122542 | 11 | 228 | 1.6 | 19.3 | 0.00 | 0.03 | 0.03 | 86 | 1007.0 |
| 20260505122042 | 11 | 263 | 1.6 | 12.9 | 0.00 | 0.03 | 0.03 | 85 | 1007.0 |
| 20260505121554 | 11 | 360 | 1.6 | 16.1 | 0.00 | 0.03 | 0.03 | 85 | 1007.0 |
| 20260505121043 | 11 | 97 | 3.2 | 16.1 | 0.00 | 0.03 | 0.03 | 85 | 1007.0 |
| 20260505120543 | 11 | 52 | 1.6 | 14.5 | 0.00 | 0.03 | 0.03 | 85 | 1006.9 |
| 20260505120058 | 11 | 40 | 1.6 | 16.1 | 0.00 | 0.03 | 0.03 | 85 | 1007.1 |
| 20260505115547 | 11 | 63 | 3.2 | 16.1 | 0.00 | 0.03 | 0.03 | 85 | 1007.0 |
| 20260505115043 | 11 | 329 | 3.2 | 16.1 | 0.00 | 0.03 | 0.03 | 85 | 1006.9 |
| 20260505114553 | 11 | 54 | 6.4 | 16.1 | 0.00 | 0.03 | 0.03 | 85 | 1006.8 |
| 20260505114042 | 11 | 67 | 1.6 | 20.9 | 0.00 | 0.03 | 0.03 | 84 | 1006.8 |
| 20260505113547 | 11 | 59 | 4.8 | 20.9 | 0.00 | 0.03 | 0.03 | 83 | 1006.6 |
| 20260505113058 | 12 | 22 | 8.0 | 20.9 | 0.00 | 0.03 | 0.03 | 82 | 1006.8 |
| 20260505112545 | 12 | 349 | 3.2 | 20.9 | 0.00 | 0.03 | 0.03 | 83 | 1006.9 |
| 20260505112042 | 12 | 67 | 6.4 | 22.5 | 0.00 | 0.03 | 0.03 | 82 | 1006.9 |
| 20260505111557 | 13 | 360 | 12.9 | 22.5 | 0.00 | 0.03 | 0.03 | 81 | 1006.6 |
| 20260505111044 | 13 | 333 | 9.7 | 29.0 | 0.00 | 0.03 | 0.03 | 82 | 1006.5 |
| 20260505110543 | 13 | 13 | 9.7 | 30.6 | 0.00 | 0.03 | 0.03 | 81 | 1006.6 |
| 20260505110110 | 14 | 355 | 17.7 | 30.6 | 0.00 | 0.03 | 0.03 | 80 | 1006.5 |
| 20260505102042 | 16 | 300 | 1.6 | 8.0 | 0.00 | 0.03 | 0.03 | 85 | 1006.2 |
| 20260505101551 | 16 | 302 | 0.0 | 14.5 | 0.00 | 0.03 | 0.03 | 86 | 1006.4 |
| 20260505101043 | 16 | 310 | 3.2 | 14.5 | 0.00 | 0.03 | 0.03 | 86 | 1006.8 |
| 20260505100543 | 15 | 311 | 1.6 | 11.3 | 0.00 | 0.03 | 0.03 | 87 | 1006.9 |
| 20260505100052 | 15 | 0 | 0.0 | 17.7 | 0.00 | 0.03 | 0.03 | 87 | 1006.5 |
| 20260505095542 | 15 | 348 | 8.0 | 17.7 | 0.00 | 0.03 | 0.03 | 86 | 1006.4 |
| 20260505095042 | 16 | 322 | 8.0 | 14.5 | 0.00 | 0.03 | 0.03 | 85 | 1006.3 |
| 20260505094554 | 16 | 287 | 1.6 | 6.4 | 0.00 | 0.03 | 0.03 | 85 | 1005.8 |
| 20260505094044 | 16 | 0 | 0.0 | 6.4 | 0.03 | 0.03 | 0.03 | 85 | 1005.5 |
| 20260505093542 | 16 | 269 | 1.6 | 11.3 | 0.03 | 0.03 | 0.03 | 85 | 1005.5 |
| 20260505093053 | 16 | 285 | 3.2 | 12.9 | 0.03 | 0.03 | 0.03 | 84 | 1005.4 |
| 20260505092544 | 16 | 270 | 3.2 | 14.5 | 0.03 | 0.03 | 0.03 | 84 | 1005.4 |
| 20260505092042 | 16 | 273 | 9.7 | 14.5 | 0.03 | 0.03 | 0.03 | 84 | 1005.2 |
| 20260505091604 | 16 | 270 | 3.2 | 9.7 | 0.03 | 0.03 | 0.03 | 84 | 1004.7 |
| 20260505091045 | 16 | 222 | 1.6 | 11.3 | 0.03 | 0.03 | 0.03 | 84 | 1004.2 |
| 20260505090543 | 16 | 188 | 3.2 | 14.5 | 0.03 | 0.03 | 0.03 | 84 | 1004.2 |
| 20260505090054 | 16 | 180 | 1.6 | 20.9 | 0.03 | 0.03 | 0.03 | 84 | 1004.4 |
| 20260505085543 | 16 | 182 | 1.6 | 20.9 | 0.03 | 0.03 | 0.03 | 84 | 1004.3 |
| 20260505085044 | 16 | 154 | 8.0 | 16.1 | 0.03 | 0.03 | 0.03 | 83 | 1003.9 |
| 20260505084553 | 16 | 159 | 4.8 | 16.1 | 0.00 | 0.00 | 0.00 | 81 | 1004.4 |
| 20260505084042 | 17 | 180 | 3.2 | 19.3 | 0.00 | 0.00 | 0.00 | 79 | 1005.6 |
| 20260505083542 | 17 | 263 | 4.8 | 20.9 | 0.00 | 0.00 | 0.00 | 78 | 1005.8 |
| 20260505083053 | 17 | 232 | 8.0 | 20.9 | 0.00 | 0.00 | 0.00 | 77 | 1005.9 |
| 20260505082542 | 17 | 252 | 4.8 | 11.3 | 0.00 | 0.00 | 0.00 | 76 | 1005.9 |
| 20260505082042 | 17 | 226 | 1.6 | 6.4 | 0.00 | 0.00 | 0.00 | 76 | 1006.0 |
| 20260505081553 | 17 | 239 | 1.6 | 9.7 | 0.00 | 0.00 | 0.00 | 76 | 1006.0 |
| 20260505081043 | 17 | 191 | 3.2 | 9.7 | 0.00 | 0.00 | 0.00 | 75 | 1005.7 |
| 20260505080545 | 17 | 213 | 1.6 | 6.4 | 0.00 | 0.00 | 0.00 | 75 | 1005.6 |
| 20260505080100 | 17 | 173 | 1.6 | 9.7 | 0.00 | 0.00 | 0.00 | 74 | 1005.5 |
| 20260505075547 | 17 | 208 | 3.2 | 12.9 | 0.00 | 0.00 | 0.00 | 74 | 1005.6 |
| 20260505075042 | 17 | 133 | 1.6 | 12.9 | 0.00 | 0.00 | 0.00 | 74 | 1005.7 |
| 20260505074549 | 17 | 222 | 1.6 | 6.4 | 0.00 | 0.00 | 0.00 | 74 | 1005.7 |
| 20260505074043 | 17 | 210 | 0.0 | 6.4 | 0.00 | 0.00 | 0.00 | 74 | 1005.6 |
| 20260505073543 | 17 | 0 | 0.0 | 6.4 | 0.00 | 0.00 | 0.00 | 74 | 1005.5 |
| 20260505073055 | 17 | 207 | 0.0 | 4.8 | 0.00 | 0.00 | 0.00 | 74 | 1005.6 |
| 20260505072543 | 17 | 204 | 0.0 | 8.0 | 0.00 | 0.00 | 0.00 | 74 | 1005.6 |
| 20260505072130 | 17 | 0 | 1.6 | 12.9 | 0.00 | 0.00 | 0.00 | 73 | 1005.5 |
| 20260505071554 | 17 | 193 | 1.6 | 12.9 | 0.00 | 0.00 | 0.00 | 74 | 1005.7 |
| 20260505071043 | 17 | 187 | 1.6 | 9.7 | 0.00 | 0.00 | 0.00 | 73 | 1005.6 |
| 20260505070543 | 17 | 178 | 3.2 | 8.0 | 0.00 | 0.00 | 0.00 | 74 | 1005.6 |
| 20260505070055 | 17 | 153 | 1.6 | 8.0 | 0.00 | 0.00 | 0.00 | 74 | 1005.6 |
| 20260505065543 | 17 | 191 | 3.2 | 11.3 | 0.00 | 0.00 | 0.00 | 74 | 1005.6 |
| 20260505065043 | 17 | 155 | 1.6 | 14.5 | 0.00 | 0.00 | 0.00 | 74 | 1005.6 |
| 20260505064554 | 17 | 159 | 1.6 | 14.5 | 0.00 | 0.00 | 0.00 | 74 | 1005.7 |
| 20260505064043 | 17 | 169 | 4.8 | 12.9 | 0.00 | 0.00 | 0.00 | 74 | 1005.8 |
| 20260505063542 | 17 | 207 | 4.8 | 11.3 | 0.00 | 0.00 | 0.00 | 74 | 1005.8 |
| 20260505063112 | 17 | 181 | 4.8 | 11.3 | 0.00 | 0.00 | 0.00 | 74 | 1005.8 |
| 20260505062546 | 17 | 171 | 3.2 | 9.7 | 0.00 | 0.00 | 0.00 | 74 | 1005.7 |
| 20260505062041 | 17 | 197 | 1.6 | 11.3 | 0.00 | 0.00 | 0.00 | 74 | 1005.8 |
| 20260505061556 | 17 | 169 | 3.2 | 11.3 | 0.00 | 0.00 | 0.00 | 74 | 1005.7 |
| 20260505061047 | 17 | 169 | 1.6 | 17.7 | 0.00 | 0.00 | 0.00 | 73 | 1005.7 |
| 20260505060543 | 17 | 230 | 4.8 | 17.7 | 0.00 | 0.00 | 0.00 | 73 | 1005.7 |
| 20260505060103 | 17 | 178 | 3.2 | 12.9 | 0.00 | 0.00 | 0.00 | 73 | 1005.7 |
| 20260505055543 | 17 | 188 | 1.6 | 11.3 | 0.00 | 0.00 | 0.00 | 73 | 1005.7 |
| 20260505055043 | 17 | 185 | 3.2 | 12.9 | 0.00 | 0.00 | 0.00 | 73 | 1005.9 |
| 20260505054609 | 17 | 191 | 4.8 | 12.9 | 0.00 | 0.00 | 0.00 | 72 | 1005.8 |
| 20260505054042 | 17 | 198 | 3.2 | 11.3 | 0.00 | 0.00 | 0.00 | 72 | 1006.0 |
| 20260505053542 | 17 | 165 | 4.8 | 16.1 | 0.00 | 0.00 | 0.00 | 72 | 1005.9 |
| 20260505053100 | 17 | 216 | 4.8 | 16.1 | 0.00 | 0.00 | 0.00 | 72 | 1006.0 |
| 20260505052542 | 17 | 182 | 4.8 | 14.5 | 0.00 | 0.00 | 0.00 | 72 | 1006.1 |
| 20260505052046 | 17 | 191 | 4.8 | 16.1 | 0.00 | 0.00 | 0.00 | 72 | 1006.1 |
| 20260505051551 | 17 | 190 | 4.8 | 16.1 | 0.00 | 0.00 | 0.00 | 72 | 1006.0 |
| 20260505051043 | 17 | 204 | 3.2 | 16.1 | 0.00 | 0.00 | 0.00 | 72 | 1005.7 |
| 20260505050543 | 17 | 175 | 1.6 | 14.5 | 0.00 | 0.00 | 0.00 | 72 | 1005.8 |
| 20260505041043 | 17 | 193 | 3.2 | 11.3 | 0.00 | 0.00 | 0.00 | 73 | 1006.3 |
| 20260505040543 | 17 | 155 | 3.2 | 9.7 | 0.00 | 0.00 | 0.00 | 73 | 1006.5 |
| 20260505040056 | 17 | 148 | 1.6 | 11.3 | 0.00 | 0.00 | 0.00 | 72 | 1006.5 |
| 20260505035542 | 17 | 202 | 3.2 | 11.3 | 0.00 | 0.00 | 0.00 | 72 | 1006.6 |
| 20260505035044 | 17 | 187 | 1.6 | 8.0 | 0.00 | 0.00 | 0.00 | 72 | 1006.6 |
| 20260505034559 | 17 | 159 | 1.6 | 9.7 | 0.00 | 0.00 | 0.00 | 71 | 1006.8 |
| 20260505034047 | 17 | 182 | 4.8 | 9.7 | 0.00 | 0.00 | 0.00 | 71 | 1006.8 |
| 20260505033543 | 17 | 156 | 3.2 | 8.0 | 0.00 | 0.00 | 0.00 | 71 | 1006.9 |
| 20260505033058 | 17 | 165 | 1.6 | 11.3 | 0.00 | 0.00 | 0.00 | 71 | 1006.9 |
| 20260505032542 | 17 | 148 | 3.2 | 11.3 | 0.00 | 0.00 | 0.00 | 71 | 1006.9 |
| 20260505032046 | 17 | 163 | 1.6 | 6.4 | 0.00 | 0.00 | 0.00 | 71 | 1006.9 |
| 20260505031603 | 17 | 162 | 3.2 | 6.4 | 0.00 | 0.00 | 0.00 | 71 | 1006.9 |
| 20260505031043 | 18 | 198 | 3.2 | 8.0 | 0.00 | 0.00 | 0.00 | 70 | 1006.9 |
| 20260505030543 | 18 | 194 | 1.6 | 8.0 | 0.00 | 0.00 | 0.00 | 69 | 1006.9 |
| 20260505030113 | 18 | 173 | 1.6 | 8.0 | 0.00 | 0.00 | 0.00 | 69 | 1007.0 |
| 20260505025544 | 18 | 188 | 1.6 | 8.0 | 0.00 | 0.00 | 0.00 | 68 | 1007.0 |
| 20260505025044 | 18 | 184 | 0.0 | 8.0 | 0.00 | 0.00 | 0.00 | 68 | 1007.1 |
| 20260505024559 | 18 | 0 | 1.6 | 6.4 | 0.00 | 0.00 | 0.00 | 67 | 1006.9 |
| 20260505024043 | 18 | 165 | 1.6 | 6.4 | 0.00 | 0.00 | 0.00 | 68 | 1006.8 |
| 20260505023543 | 18 | 164 | 1.6 | 9.7 | 0.00 | 0.00 | 0.00 | 67 | 1006.6 |
| 20260505023051 | 18 | 169 | 1.6 | 9.7 | 0.00 | 0.00 | 0.00 | 67 | 1006.5 |
| 20260505022543 | 18 | 175 | 1.6 | 9.7 | 0.00 | 0.00 | 0.00 | 67 | 1006.4 |
| 20260505022043 | 19 | 188 | 1.6 | 6.4 | 0.00 | 0.00 | 0.00 | 66 | 1006.3 |
| 20260505021558 | 19 | 162 | 1.6 | 6.4 | 0.00 | 0.00 | 0.00 | 65 | 1006.3 |
| 20260505021043 | 19 | 211 | 1.6 | 6.4 | 0.00 | 0.00 | 0.00 | 65 | 1006.3 |
| 20260505020543 | 19 | 0 | 1.6 | 9.7 | 0.00 | 0.00 | 0.00 | 65 | 1006.2 |
| 20260505020054 | 20 | 209 | 1.6 | 9.7 | 0.00 | 0.00 | 0.00 | 64 | 1006.1 |
| 20260505015545 | 20 | 148 | 3.2 | 9.7 | 0.00 | 0.00 | 0.00 | 63 | 1006.0 |
| 20260505015043 | 20 | 148 | 1.6 | 9.7 | 0.00 | 0.00 | 0.00 | 63 | 1006.0 |
| 20260505014607 | 20 | 207 | 1.6 | 9.7 | 0.00 | 0.00 | 0.00 | 62 | 1005.8 |
| 20260505014042 | 20 | 153 | 1.6 | 9.7 | 0.00 | 0.00 | 0.00 | 62 | 1005.8 |
| 20260505013542 | 20 | 193 | 3.2 | 9.7 | 0.00 | 0.00 | 0.00 | 61 | 1005.7 |
| 20260505013053 | 20 | 207 | 3.2 | 9.7 | 0.00 | 0.00 | 0.00 | 61 | 1005.5 |
| 20260505012542 | 20 | 194 | 1.6 | 11.3 | 0.00 | 0.00 | 0.00 | 61 | 1005.5 |
| 20260505012043 | 20 | 207 | 1.6 | 11.3 | 0.00 | 0.00 | 0.00 | 61 | 1005.5 |
| 20260505011604 | 20 | 188 | 1.6 | 9.7 | 0.00 | 0.00 | 0.00 | 61 | 1005.6 |
| 20260505011042 | 20 | 184 | 1.6 | 8.0 | 0.00 | 0.00 | 0.00 | 61 | 1005.6 |
| 20260505010544 | 20 | 190 | 1.6 | 6.4 | 0.00 | 0.00 | 0.00 | 60 | 1005.5 |
| 20260505010053 | 21 | 182 | 1.6 | 6.4 | 0.00 | 0.00 | 0.00 | 59 | 1005.3 |
| 20260505005543 | 21 | 170 | 1.6 | 4.8 | 0.00 | 0.00 | 0.00 | 57 | 1005.3 |
| 20260505005045 | 21 | 188 | 1.6 | 8.0 | 0.00 | 0.00 | 0.00 | 56 | 1005.3 |
| 20260505004553 | 21 | 203 | 1.6 | 8.0 | 0.00 | 0.00 | 0.00 | 55 | 1005.2 |
| 20260505004042 | 22 | 200 | 1.6 | 9.7 | 0.00 | 0.00 | 0.00 | 54 | 1005.1 |
| 20260505003543 | 22 | 199 | 3.2 | 9.7 | 0.00 | 0.00 | 0.00 | 53 | 1005.1 |
| 20260505003051 | 22 | 205 | 3.2 | 12.9 | 0.00 | 0.00 | 0.00 | 52 | 1005.1 |
| 20260505002542 | 22 | 189 | 3.2 | 14.5 | 0.00 | 0.00 | 0.00 | 51 | 1005.1 |
| 20260505002043 | 22 | 213 | 6.4 | 16.1 | 0.00 | 0.00 | 0.00 | 51 | 1005.0 |
| 20260505001551 | 23 | 209 | 6.4 | 16.1 | 0.00 | 0.00 | 0.00 | 51 | 1005.0 |
| 20260505001042 | 23 | 173 | 4.8 | 20.9 | 0.00 | 0.00 | 0.00 | 50 | 1005.1 |
| 20260505000544 | 23 | 157 | 6.4 | 20.9 | 0.00 | 0.00 | 0.00 | 50 | 1005.1 |
| 20260505000107 | 23 | 194 | 4.8 | 19.3 | 0.00 | 0.00 | 0.00 | 50 | 1005.1 |
| 20260504235543 | 23 | 211 | 6.4 | 20.9 | 0.00 | 0.00 | 0.00 | 50 | 1005.1 |
| 20260504235042 | 24 | 148 | 9.7 | 20.9 | 0.00 | 0.00 | 0.00 | 49 | 1005.2 |
| 20260504234551 | 24 | 178 | 4.8 | 19.3 | 0.00 | 0.00 | 0.00 | 49 | 1005.2 |
| 20260504234043 | 24 | 219 | 6.4 | 19.3 | 0.00 | 0.00 | 0.00 | 50 | 1005.1 |
| 20260504233543 | 24 | 143 | 8.0 | 20.9 | 0.00 | 0.00 | 0.00 | 49 | 1005.1 |
| 20260504233107 | 25 | 119 | 6.4 | 20.9 | 0.00 | 0.00 | 0.00 | 48 | 1005.2 |
| 20260504232543 | 25 | 213 | 4.8 | 14.5 | 0.00 | 0.00 | 0.00 | 50 | 1005.3 |
| 20260504232044 | 25 | 230 | 4.8 | 16.1 | 0.00 | 0.00 | 0.00 | 48 | 1005.2 |
| 20260504231552 | 25 | 212 | 6.4 | 16.1 | 0.00 | 0.00 | 0.00 | 48 | 1005.3 |
| 20260504231042 | 25 | 190 | 9.7 | 16.1 | 0.00 | 0.00 | 0.00 | 49 | 1005.3 |
| 20260504230543 | 25 | 204 | 4.8 | 20.9 | 0.00 | 0.00 | 0.00 | 50 | 1005.3 |
| 20260504230053 | 25 | 193 | 8.0 | 20.9 | 0.00 | 0.00 | 0.00 | 49 | 1005.3 |
| 20260504225543 | 25 | 175 | 4.8 | 16.1 | 0.00 | 0.00 | 0.00 | 48 | 1005.3 |
| 20260504225044 | 25 | 202 | 4.8 | 14.5 | 0.00 | 0.00 | 0.00 | 48 | 1005.3 |
| 20260504224604 | 25 | 246 | 6.4 | 30.6 | 0.00 | 0.00 | 0.00 | 47 | 1005.2 |
| 20260504224100 | 25 | 209 | 8.0 | 30.6 | 0.00 | 0.00 | 0.00 | 46 | 1005.4 |
| 20260504223543 | 25 | 231 | 12.9 | 24.1 | 0.00 | 0.00 | 0.00 | 46 | 1005.3 |
| 20260504223127 | 25 | 200 | 8.0 | 17.7 | 0.00 | 0.00 | 0.00 | 48 | 1005.3 |
| 20260504222543 | 25 | 198 | 6.4 | 14.5 | 0.00 | 0.00 | 0.00 | 47 | 1005.4 |
| 20260504222042 | 25 | 203 | 8.0 | 17.7 | 0.00 | 0.00 | 0.00 | 47 | 1005.5 |
| 20260504221554 | 25 | 194 | 6.4 | 19.3 | 0.00 | 0.00 | 0.00 | 48 | 1005.4 |
| 20260504221046 | 25 | 229 | 8.0 | 19.3 | 0.00 | 0.00 | 0.00 | 46 | 1005.5 |
| 20260504220543 | 25 | 225 | 6.4 | 14.5 | 0.00 | 0.00 | 0.00 | 49 | 1005.5 |
| 20260504220053 | 25 | 195 | 6.4 | 14.5 | 0.00 | 0.00 | 0.00 | 46 | 1005.4 |
| 20260504215543 | 25 | 264 | 6.4 | 19.3 | 0.00 | 0.00 | 0.00 | 50 | 1005.4 |
| 20260504215042 | 25 | 248 | 6.4 | 19.3 | 0.00 | 0.00 | 0.00 | 48 | 1005.4 |
| 20260504214553 | 25 | 231 | 8.0 | 19.3 | 0.00 | 0.00 | 0.00 | 48 | 1005.5 |
| 20260504214046 | 25 | 189 | 8.0 | 20.9 | 0.00 | 0.00 | 0.00 | 46 | 1005.5 |
| 20260504213543 | 25 | 235 | 9.7 | 22.5 | 0.00 | 0.00 | 0.00 | 46 | 1005.5 |
| 20260504213102 | 26 | 230 | 6.4 | 22.5 | 0.00 | 0.00 | 0.00 | 48 | 1005.5 |
| 20260504212543 | 26 | 162 | 8.0 | 24.1 | 0.00 | 0.00 | 0.00 | 46 | 1005.7 |
| 20260504212047 | 26 | 165 | 9.7 | 24.1 | 0.00 | 0.00 | 0.00 | 46 | 1005.7 |
| 20260504211551 | 26 | 208 | 6.4 | 22.5 | 0.00 | 0.00 | 0.00 | 48 | 1005.8 |
| 20260504211043 | 26 | 198 | 8.0 | 24.1 | 0.00 | 0.00 | 0.00 | 48 | 1005.8 |
| 20260504210548 | 26 | 228 | 12.9 | 24.1 | 0.00 | 0.00 | 0.00 | 47 | 1005.8 |
| 20260504210059 | 25 | 213 | 11.3 | 24.1 | 0.00 | 0.00 | 0.00 | 48 | 1005.8 |
| 20260504205544 | 25 | 198 | 9.7 | 24.1 | 0.00 | 0.00 | 0.00 | 47 | 1006.0 |
| 20260504205045 | 25 | 163 | 8.0 | 22.5 | 0.00 | 0.00 | 0.00 | 47 | 1006.0 |
| 20260504204554 | 25 | 238 | 8.0 | 24.1 | 0.00 | 0.00 | 0.00 | 46 | 1006.0 |
| 20260504204043 | 25 | 249 | 9.7 | 24.1 | 0.00 | 0.00 | 0.00 | 48 | 1006.2 |
| 20260504203543 | 25 | 201 | 12.9 | 25.7 | 0.00 | 0.00 | 0.00 | 44 | 1006.3 |
| 20260504203107 | 25 | 185 | 12.9 | 30.6 | 0.00 | 0.00 | 0.00 | 46 | 1006.3 |
| 20260504202543 | 25 | 144 | 12.9 | 30.6 | 0.00 | 0.00 | 0.00 | 47 | 1006.4 |
| 20260504202046 | 25 | 141 | 9.7 | 24.1 | 0.00 | 0.00 | 0.00 | 47 | 1006.5 |
| 20260504201558 | 26 | 215 | 9.7 | 22.5 | 0.00 | 0.00 | 0.00 | 49 | 1006.6 |
| 20260504201043 | 26 | 236 | 11.3 | 24.1 | 0.00 | 0.00 | 0.00 | 47 | 1006.5 |
| 20260504200543 | 25 | 205 | 9.7 | 24.1 | 0.00 | 0.00 | 0.00 | 47 | 1006.6 |
| 20260504195542 | 26 | 228 | 8.0 | 25.7 | 0.00 | 0.00 | 0.00 | 47 | 1006.7 |
| 20260504195042 | 26 | 167 | 8.0 | 38.6 | 0.00 | 0.00 | 0.00 | 49 | 1006.7 |
| 20260504194552 | 25 | 216 | 11.3 | 38.6 | 0.00 | 0.00 | 0.00 | 45 | 1006.8 |
| 20260504194045 | 26 | 173 | 11.3 | 24.1 | 0.00 | 0.00 | 0.00 | 47 | 1006.7 |
| 20260504193545 | 25 | 133 | 9.7 | 30.6 | 0.00 | 0.00 | 0.00 | 49 | 1006.8 |
| 20260504193055 | 25 | 148 | 11.3 | 30.6 | 0.00 | 0.00 | 0.00 | 48 | 1006.9 |
| 20260504192542 | 25 | 261 | 8.0 | 25.7 | 0.00 | 0.00 | 0.00 | 46 | 1006.8 |
| 20260504192044 | 25 | 204 | 11.3 | 25.7 | 0.00 | 0.00 | 0.00 | 47 | 1006.9 |
| 20260504191600 | 25 | 236 | 11.3 | 25.7 | 0.00 | 0.00 | 0.00 | 48 | 1007.0 |
| 20260504191042 | 25 | 180 | 11.3 | 25.7 | 0.00 | 0.00 | 0.00 | 48 | 1007.1 |
| 20260504190543 | 25 | 209 | 11.3 | 25.7 | 0.00 | 0.00 | 0.00 | 49 | 1007.0 |
| 20260504190052 | 25 | 226 | 9.7 | 24.1 | 0.00 | 0.00 | 0.00 | 48 | 1007.1 |
| 20260504185542 | 25 | 167 | 11.3 | 29.0 | 0.00 | 0.00 | 0.00 | 46 | 1007.1 |
| 20260504185043 | 25 | 185 | 9.7 | 29.0 | 0.00 | 0.00 | 0.00 | 49 | 1007.0 |
| 20260504184557 | 25 | 199 | 9.7 | 25.7 | 0.00 | 0.00 | 0.00 | 51 | 1007.2 |
| 20260504184043 | 25 | 168 | 11.3 | 25.7 | 0.00 | 0.00 | 0.00 | 49 | 1007.2 |
| 20260504183542 | 25 | 163 | 9.7 | 22.5 | 0.00 | 0.00 | 0.00 | 50 | 1007.1 |
| 20260504183053 | 25 | 138 | 8.0 | 20.9 | 0.00 | 0.00 | 0.00 | 53 | 1007.2 |
| 20260504182546 | 25 | 207 | 9.7 | 22.5 | 0.00 | 0.00 | 0.00 | 50 | 1007.1 |
| 20260504182042 | 25 | 231 | 12.9 | 25.7 | 0.00 | 0.00 | 0.00 | 51 | 1007.1 |
| 20260504181554 | 25 | 132 | 12.9 | 25.7 | 0.00 | 0.00 | 0.00 | 50 | 1007.1 |
| 20260504181043 | 25 | 162 | 12.9 | 24.1 | 0.00 | 0.00 | 0.00 | 49 | 1007.0 |
| 20260504180544 | 25 | 176 | 9.7 | 25.7 | 0.00 | 0.00 | 0.00 | 51 | 1007.2 |
| 20260504180055 | 25 | 172 | 9.7 | 25.7 | 0.00 | 0.00 | 0.00 | 52 | 1007.1 |
| 20260504175543 | 25 | 252 | 9.7 | 25.7 | 0.00 | 0.00 | 0.00 | 50 | 1007.1 |
| 20260504175043 | 25 | 218 | 9.7 | 22.5 | 0.00 | 0.00 | 0.00 | 52 | 1007.1 |
| 20260504174602 | 25 | 134 | 9.7 | 22.5 | 0.00 | 0.00 | 0.00 | 53 | 1007.2 |
| 20260504174043 | 25 | 195 | 12.9 | 22.5 | 0.00 | 0.00 | 0.00 | 51 | 1007.2 |
| 20260504173543 | 25 | 190 | 11.3 | 22.5 | 0.00 | 0.00 | 0.00 | 50 | 1007.3 |
| 20260504173100 | 25 | 180 | 11.3 | 24.1 | 0.00 | 0.00 | 0.00 | 51 | 1007.3 |
| 20260504172543 | 25 | 204 | 11.3 | 29.0 | 0.00 | 0.00 | 0.00 | 50 | 1007.3 |
| 20260504172042 | 25 | 229 | 11.3 | 29.0 | 0.00 | 0.00 | 0.00 | 50 | 1007.2 |
| 20260504171554 | 25 | 235 | 9.7 | 19.3 | 0.00 | 0.00 | 0.00 | 50 | 1007.2 |
| 20260504171043 | 25 | 179 | 8.0 | 22.5 | 0.00 | 0.00 | 0.00 | 52 | 1007.3 |
| 20260504170542 | 24 | 160 | 9.7 | 27.4 | 0.00 | 0.00 | 0.00 | 53 | 1007.2 |
| 20260504151043 | 21 | 149 | 12.9 | 25.7 | 0.00 | 0.00 | 0.00 | 54 | 1008.4 |
| 20260504150543 | 21 | 220 | 6.4 | 29.0 | 0.00 | 0.00 | 0.00 | 56 | 1008.5 |
| 20260504150103 | 21 | 212 | 9.7 | 29.0 | 0.00 | 0.00 | 0.00 | 53 | 1008.6 |